| time (UTC) | temp F | wind direction | speed MPH | gust MPH | rain 1hr in | rain 24hr in | rain mn in | humidity % | barometer mb |
| 20260504050018 | 54 | 291 | 0.0 | 0.0 | 0.00 | 0.85 | 0.00 | 88 | 1019.7 |
| 20260504044521 | 55 | 291 | 0.0 | 0.0 | 0.00 | 0.88 | 0.85 | 88 | 1019.7 |
| 20260504043024 | 55 | 291 | 0.0 | 0.0 | 0.00 | 0.90 | 0.85 | 86 | 1019.8 |
| 20260504041505 | 55 | 291 | 0.0 | 0.0 | 0.00 | 0.93 | 0.85 | 85 | 1019.8 |
| 20260504040010 | 56 | 291 | 0.0 | 0.0 | 0.00 | 0.95 | 0.85 | 84 | 1019.6 |
| 20260504034511 | 56 | 291 | 0.0 | 0.0 | 0.00 | 0.97 | 0.85 | 83 | 1019.6 |
| 20260504033019 | 57 | 291 | 0.0 | 0.0 | 0.00 | 0.99 | 0.85 | 81 | 1019.6 |
| 20260504031527 | 58 | 291 | 0.0 | 0.0 | 0.00 | 1.01 | 0.85 | 80 | 1019.5 |
| 20260504030006 | 58 | 291 | 0.0 | 0.0 | 0.00 | 1.02 | 0.85 | 78 | 1019.7 |
| 20260504024514 | 59 | 291 | 0.0 | 0.0 | 0.00 | 1.03 | 0.85 | 76 | 1019.5 |
| 20260504023019 | 60 | 291 | 0.0 | 0.0 | 0.00 | 1.04 | 0.85 | 74 | 1019.6 |
| 20260504021521 | 61 | 291 | 0.0 | 0.0 | 0.00 | 1.04 | 0.85 | 72 | 1019.3 |
| 20260504020027 | 62 | 291 | 0.0 | 0.0 | 0.00 | 1.04 | 0.85 | 69 | 1019.2 |
| 20260504014507 | 63 | 291 | 0.0 | 0.0 | 0.00 | 1.04 | 0.85 | 67 | 1019.1 |
| 20260504013015 | 64 | 291 | 0.0 | 0.0 | 0.00 | 1.04 | 0.85 | 65 | 1018.8 |
| 20260504011518 | 65 | 326 | 0.0 | 1.0 | 0.00 | 1.04 | 0.85 | 63 | 1018.8 |
| 20260504010021 | 65 | 326 | 0.0 | 2.0 | 0.00 | 1.04 | 0.85 | 60 | 1018.5 |
| 20260504004528 | 67 | 326 | 0.0 | 0.0 | 0.00 | 1.05 | 0.85 | 56 | 1018.4 |
| 20260504003012 | 68 | 326 | 0.0 | 0.0 | 0.00 | 1.05 | 0.85 | 48 | 1018.3 |
| 20260504001519 | 71 | 326 | 0.0 | 0.0 | 0.00 | 1.05 | 0.85 | 44 | 1018.0 |
| 20260504000022 | 72 | 326 | 0.0 | 2.0 | 0.00 | 1.05 | 0.85 | 40 | 1018.1 |
| 20260503234526 | 73 | 1 | 1.0 | 4.0 | 0.00 | 1.05 | 0.85 | 37 | 1018.1 |
| 20260503233025 | 74 | 358 | 2.0 | 5.0 | 0.00 | 1.05 | 0.85 | 36 | 1018.1 |
| 20260503231520 | 75 | 359 | 2.0 | 6.0 | 0.00 | 1.07 | 0.85 | 36 | 1018.1 |
| 20260503230022 | 76 | 326 | 3.0 | 8.0 | 0.00 | 1.07 | 0.85 | 34 | 1018.2 |
| 20260503224523 | 76 | 359 | 2.0 | 7.0 | 0.00 | 1.07 | 0.85 | 33 | 1018.1 |
| 20260503223028 | 77 | 308 | 1.0 | 6.0 | 0.00 | 1.07 | 0.85 | 32 | 1017.9 |
| 20260503221527 | 77 | 7 | 2.0 | 4.0 | 0.00 | 1.07 | 0.85 | 33 | 1017.9 |
| 20260503220019 | 77 | 31 | 2.0 | 4.0 | 0.00 | 1.07 | 0.85 | 36 | 1018.0 |
| 20260503214520 | 77 | 1 | 4.0 | 7.0 | 0.00 | 1.08 | 0.85 | 33 | 1018.0 |
| 20260503213029 | 77 | 359 | 3.0 | 6.0 | 0.00 | 1.08 | 0.85 | 34 | 1018.3 |
| 20260503211534 | 77 | 32 | 2.0 | 8.0 | 0.00 | 1.08 | 0.85 | 35 | 1018.3 |
| 20260503210016 | 76 | 134 | 1.0 | 8.0 | 0.00 | 1.08 | 0.85 | 35 | 1018.7 |
| 20260503204522 | 77 | 13 | 3.0 | 6.0 | 0.00 | 1.08 | 0.85 | 32 | 1018.8 |
| 20260503203024 | 76 | 234 | 1.0 | 7.0 | 0.00 | 1.09 | 0.85 | 37 | 1019.1 |
| 20260503201510 | 76 | 359 | 4.0 | 9.0 | 0.00 | 1.09 | 0.85 | 35 | 1019.1 |
| 20260503200015 | 76 | 21 | 2.0 | 6.0 | 0.00 | 1.09 | 0.85 | 32 | 1019.2 |
| 20260503194519 | 76 | 252 | 2.0 | 4.0 | 0.00 | 1.09 | 0.85 | 33 | 1019.7 |
| 20260503193005 | 76 | 313 | 2.0 | 6.0 | 0.00 | 1.09 | 0.85 | 36 | 1020.0 |
| 20260503191509 | 75 | 310 | 3.0 | 5.0 | 0.00 | 1.10 | 0.85 | 38 | 1020.3 |
| 20260503190029 | 75 | 342 | 4.0 | 10.0 | 0.00 | 1.10 | 0.85 | 36 | 1020.3 |
| 20260503184518 | 76 | 359 | 3.0 | 7.0 | 0.00 | 1.10 | 0.85 | 35 | 1020.9 |
| 20260503183023 | 74 | 341 | 1.0 | 8.0 | 0.00 | 1.10 | 0.85 | 33 | 1020.8 |
| 20260503181504 | 75 | 158 | 1.0 | 11.0 | 0.00 | 1.11 | 0.85 | 35 | 1020.9 |
| 20260503180018 | 74 | 344 | 1.0 | 9.0 | 0.00 | 1.11 | 0.85 | 35 | 1021.2 |
| 20260503174513 | 74 | 341 | 1.0 | 7.0 | 0.00 | 1.11 | 0.85 | 34 | 1021.1 |
| 20260503173020 | 74 | 206 | 3.0 | 9.0 | 0.00 | 1.11 | 0.85 | 39 | 1021.2 |
| 20260503171534 | 73 | 158 | 3.0 | 9.0 | 0.00 | 1.12 | 0.85 | 40 | 1021.4 |
| 20260503081504 | 48 | 323 | 0.0 | 0.0 | 0.12 | 0.69 | 0.33 | 87 | 1019.9 |